Starlink 3447

operational
NORAD ID: 51736 Int'l Des: 2022-016 Owner: SPXS Country: US Constellation: starlink
LEOCIRCULAR

关于 Starlink 3447

正在加载描述...

实时位置

正在加载3D地球...

即将过境

高度历史

Altitude vs Time

uPlot chart will show altitude changes over time

两行轨道根数

1 51736U 22016Y 25340.51956545 .00006478 00000-0 42471-3 0 9993
2 51736 53.2175 17.4645 0001390 98.4572 261.6577 15.08840040209490
Epoch: Dec 6, 2025 • Age: 20 hours

当前状态

高度 557.0 km
速度 7.58 km/s
星下点 -48.00°S, 43.39°E
发射日期 Feb 21, 2022
运行时间 3.7 years
类型 internet

技术详情

分类 Payload
质量 297.00 kg
干质量 275.00 kg
总质量 297.00 kg
长度 0.20 m
直径 2.80 m
跨度 9.00 m
形状 Box + pan
制造商 SPXS
平台类型 Starlink
阶段状态 In Orbit
所有者/国家 SPXS/US

大型星座

Loading constellations...